DAL6540 KMCO-KEYW

Flight info

Callsign DAL6540
Flight time 0h 54m
Altitude 38000
Route FSHUN4 PLUMR RSW/N0441F370 KARTR KRAKN1
Aircraft A319/M-SDE3FGHIRWY/LB1

Departure

Time 2026-05-08 00:54
Airport Orlando International Airport (KMCO)

Arrival

Time 2026-05-08 01:48
Airport Key West International Airport (KEYW)
Time Latitude Longitude Altitude Speed Heading
2026-05-08 00:39 28.42838 -81.29991 95 ft 0 kts 285°
2026-05-08 00:42 28.42837 -81.29986 94 ft 2 kts 285°
2026-05-08 00:42 28.42832 -81.29967 95 ft 3 kts 285°
2026-05-08 00:43 28.42828 -81.29947 95 ft 3 kts 285°
2026-05-08 00:43 28.42823 -81.29927 94 ft 3 kts 284°
2026-05-08 00:43 28.42821 -81.29895 95 ft 4 kts 238°
2026-05-08 00:43 28.42833 -81.29883 94 ft 0 kts 176°
2026-05-08 00:46 28.42795 -81.29881 94 ft 11 kts 179°
2026-05-08 00:46 28.42711 -81.29883 95 ft 16 kts 180°
2026-05-08 00:47 28.42692 -81.29883 95 ft 16 kts 177°
2026-05-08 00:47 28.42617 -81.29882 96 ft 1 kts 176°
2026-05-08 00:47 28.42589 -81.29820 95 ft 13 kts 130°
2026-05-08 00:47 28.42491 -81.29795 97 ft 17 kts 179°
2026-05-08 00:48 28.42376 -81.29833 95 ft 18 kts 233°
2026-05-08 00:48 28.42363 -81.29966 95 ft 18 kts 268°
2026-05-08 00:48 28.42361 -81.30118 95 ft 21 kts 270°
2026-05-08 00:48 28.42359 -81.30284 97 ft 21 kts 266°
2026-05-08 00:49 28.42351 -81.30452 94 ft 23 kts 266°
2026-05-08 00:49 28.42339 -81.30634 96 ft 22 kts 258°
2026-05-08 00:49 28.42327 -81.30814 94 ft 24 kts 266°
2026-05-08 00:49 28.42317 -81.31014 94 ft 26 kts 276°
2026-05-08 00:50 28.42342 -81.31217 94 ft 27 kts 278°
2026-05-08 00:50 28.42350 -81.31431 96 ft 27 kts 269°
2026-05-08 00:50 28.42349 -81.31646 99 ft 27 kts 269°
2026-05-08 00:50 28.42345 -81.31813 100 ft 18 kts 272°
2026-05-08 00:51 28.42345 -81.31938 102 ft 12 kts 270°
2026-05-08 00:51 28.42337 -81.31989 102 ft 10 kts 218°
2026-05-08 00:51 28.42231 -81.31992 99 ft 20 kts 178°
2026-05-08 00:51 28.42081 -81.31983 98 ft 24 kts 179°
2026-05-08 00:52 28.41907 -81.31985 98 ft 26 kts 178°
2026-05-08 00:52 28.41720 -81.31981 98 ft 28 kts 181°
2026-05-08 00:52 28.41568 -81.31984 99 ft 1 kts 196°
2026-05-08 00:52 28.41543 -81.32038 98 ft 12 kts 271°
2026-05-08 00:53 28.41543 -81.32098 97 ft 0 kts 270°
2026-05-08 00:53 28.41543 -81.32104 97 ft 10 kts 270°
2026-05-08 00:53 28.41573 -81.32195 98 ft 10 kts 358°
2026-05-08 00:53 28.41816 -81.32200 98 ft 82 kts 359°
2026-05-08 00:54 28.42677 -81.32212 121 ft 162 kts 357°
2026-05-08 00:54 28.43901 -81.32228 753 ft 187 kts 356°
2026-05-08 00:54 28.45277 -81.32255 1684 ft 198 kts 355°
2026-05-08 00:54 28.46679 -81.32276 2712 ft 214 kts 356°
2026-05-08 00:55 28.48271 -81.32300 3529 ft 240 kts 357°
2026-05-08 00:55 28.49979 -81.32314 4600 ft 250 kts 358°
2026-05-08 00:55 28.51728 -81.32382 5637 ft 254 kts 351°
2026-05-08 00:55 28.53497 -81.32641 6504 ft 257 kts 349°
2026-05-08 00:56 28.55235 -81.33094 6837 ft 257 kts 338°
2026-05-08 00:56 28.56883 -81.33892 6970 ft 257 kts 333°
2026-05-08 00:56 28.58279 -81.34712 6988 ft 255 kts 320°
2026-05-08 00:56 28.59378 -81.36275 7029 ft 259 kts 291°
2026-05-08 00:57 28.59631 -81.38353 7331 ft 277 kts 261°
2026-05-08 00:57 28.58886 -81.40343 8487 ft 276 kts 233°
2026-05-08 00:57 28.57448 -81.41804 9676 ft 282 kts 214°
2026-05-08 00:57 28.55631 -81.42691 10494 ft 299 kts 200°
2026-05-08 00:58 28.53514 -81.43283 10889 ft 327 kts 194°
2026-05-08 00:58 28.51184 -81.43695 11398 ft 346 kts 190°
2026-05-08 00:58 28.48787 -81.43995 12338 ft 349 kts 189°
2026-05-08 00:58 28.46349 -81.44262 13309 ft 353 kts 189°
2026-05-08 00:59 28.43903 -81.44527 14183 ft 358 kts 189°
2026-05-08 00:59 28.41435 -81.44800 14928 ft 364 kts 189°
2026-05-08 00:59 28.39897 -81.44972 15390 ft 368 kts 190°
2026-05-08 00:59 28.38125 -81.45172 15935 ft 371 kts 190°
2026-05-08 01:00 28.36313 -81.45378 16467 ft 376 kts 190°
2026-05-08 01:00 28.33682 -81.45678 17225 ft 381 kts 191°
2026-05-08 01:00 28.31025 -81.45980 17958 ft 387 kts 191°
2026-05-08 01:00 28.28320 -81.46288 18673 ft 392 kts 191°
2026-05-08 01:01 28.25604 -81.46597 19407 ft 394 kts 191°
2026-05-08 01:01 28.23447 -81.46844 19960 ft 397 kts 191°
2026-05-08 01:01 28.21151 -81.47106 20527 ft 400 kts 192°
2026-05-08 01:01 28.19586 -81.47285 20921 ft 401 kts 192°
2026-05-08 01:02 28.17233 -81.47553 21486 ft 405 kts 192°
2026-05-08 01:02 28.14380 -81.47878 22169 ft 408 kts 192°
2026-05-08 01:02 28.11537 -81.48200 22854 ft 412 kts 192°
2026-05-08 01:02 28.08694 -81.48522 23484 ft 416 kts 192°
2026-05-08 01:03 28.05865 -81.48842 24034 ft 419 kts 192°
2026-05-08 01:03 28.02962 -81.49169 24583 ft 423 kts 192°
2026-05-08 01:03 28.00103 -81.49492 25113 ft 426 kts 192°
2026-05-08 01:03 27.97151 -81.49824 25642 ft 429 kts 192°
2026-05-08 01:04 27.95157 -81.50102 25997 ft 427 kts 197°
2026-05-08 01:04 27.94419 -81.50268 26134 ft 426 kts 199°
2026-05-08 01:04 27.91559 -81.51313 26644 ft 421 kts 209°
2026-05-08 01:04 27.89044 -81.52835 27129 ft 417 kts 219°
2026-05-08 01:05 27.86706 -81.54792 27614 ft 417 kts 223°
2026-05-08 01:05 27.84391 -81.56789 28108 ft 421 kts 222°
2026-05-08 01:05 27.82779 -81.58171 28440 ft 423 kts 222°
2026-05-08 01:05 27.80520 -81.60103 28895 ft 425 kts 222°
2026-05-08 01:06 27.78167 -81.62113 29345 ft 429 kts 222°
2026-05-08 01:06 27.75779 -81.64152 29793 ft 432 kts 222°
2026-05-08 01:06 27.73371 -81.66198 30229 ft 436 kts 220°
2026-05-08 01:06 27.70731 -81.67953 30617 ft 446 kts 211°
2026-05-08 01:07 27.67789 -81.69183 31013 ft 457 kts 200°
2026-05-08 01:07 27.64633 -81.69807 31468 ft 466 kts 190°
2026-05-08 01:07 27.61342 -81.70026 31998 ft 467 kts 189°
2026-05-08 01:07 27.58147 -81.70243 32525 ft 466 kts 189°
2026-05-08 01:08 27.54928 -81.70468 33054 ft 464 kts 189°
2026-05-08 01:08 27.51695 -81.70697 33568 ft 463 kts 189°
2026-05-08 01:08 27.48445 -81.70927 34081 ft 462 kts 189°
2026-05-08 01:08 27.45277 -81.71150 34525 ft 461 kts 189°
2026-05-08 01:09 27.42043 -81.71378 34973 ft 459 kts 189°
2026-05-08 01:09 27.38894 -81.71599 35392 ft 458 kts 189°
2026-05-08 01:09 27.35672 -81.71826 35822 ft 457 kts 189°
2026-05-08 01:09 27.32549 -81.72046 36217 ft 456 kts 189°
2026-05-08 01:10 27.29339 -81.72271 36638 ft 455 kts 189°
2026-05-08 01:10 27.26226 -81.72490 37042 ft 454 kts 189°
2026-05-08 01:10 27.23032 -81.72714 37416 ft 453 kts 189°
2026-05-08 01:10 27.19886 -81.72934 37795 ft 452 kts 189°
2026-05-08 01:11 27.16744 -81.73154 38012 ft 452 kts 189°
2026-05-08 01:11 27.10499 -81.73589 38029 ft 449 kts 189°
2026-05-08 01:12 27.04242 -81.74027 38030 ft 450 kts 189°
2026-05-08 01:12 26.98003 -81.74461 38032 ft 450 kts 189°
2026-05-08 01:13 26.91864 -81.74888 38031 ft 450 kts 189°
2026-05-08 01:13 26.85597 -81.75324 38034 ft 450 kts 188°
2026-05-08 01:14 26.79345 -81.75758 38028 ft 451 kts 188°
2026-05-08 01:14 26.73066 -81.76193 38029 ft 451 kts 188°
2026-05-08 01:15 26.66717 -81.76631 38032 ft 451 kts 188°
2026-05-08 01:15 26.60449 -81.77065 38039 ft 452 kts 188°
2026-05-08 01:16 26.54220 -81.77314 38040 ft 455 kts 182°
2026-05-08 01:16 26.48004 -81.76319 38035 ft 462 kts 171°
2026-05-08 01:17 26.41803 -81.74706 38037 ft 462 kts 171°
2026-05-08 01:17 26.35567 -81.73115 38036 ft 462 kts 171°
2026-05-08 01:18 26.29289 -81.71512 38034 ft 463 kts 171°
2026-05-08 01:18 26.24725 -81.70347 38037 ft 463 kts 171°
2026-05-08 01:19 26.18456 -81.68747 38036 ft 463 kts 171°
2026-05-08 01:19 26.12175 -81.67145 38034 ft 463 kts 171°
2026-05-08 01:20 26.05894 -81.65546 38034 ft 463 kts 171°
2026-05-08 01:20 26.00434 -81.64157 38032 ft 463 kts 171°
2026-05-08 01:21 25.94144 -81.62559 38031 ft 463 kts 171°
2026-05-08 01:21 25.87908 -81.60976 38026 ft 463 kts 171°
2026-05-08 01:22 25.81616 -81.59380 38027 ft 464 kts 171°
2026-05-08 01:22 25.75320 -81.57785 38026 ft 464 kts 171°
2026-05-08 01:23 25.69019 -81.56191 38027 ft 464 kts 171°
2026-05-08 01:23 25.62796 -81.54617 37575 ft 458 kts 171°
2026-05-08 01:23 25.59680 -81.53830 36722 ft 458 kts 171°
2026-05-08 01:24 25.56544 -81.53314 35646 ft 455 kts 182°
2026-05-08 01:24 25.53393 -81.53527 34507 ft 452 kts 195°
2026-05-08 01:24 25.50377 -81.54447 33292 ft 450 kts 204°
2026-05-08 01:24 25.47523 -81.55586 32103 ft 452 kts 204°
2026-05-08 01:25 25.44560 -81.56781 30875 ft 455 kts 204°
2026-05-08 01:25 25.41578 -81.57971 29736 ft 455 kts 204°
2026-05-08 01:25 25.38620 -81.59134 28763 ft 447 kts 204°
2026-05-08 01:25 25.35706 -81.60272 27837 ft 440 kts 204°
2026-05-08 01:26 25.32843 -81.61385 26916 ft 433 kts 204°
2026-05-08 01:26 25.30054 -81.62469 26027 ft 427 kts 204°
2026-05-08 01:26 25.27277 -81.63550 25162 ft 421 kts 205°
2026-05-08 01:26 25.24702 -81.64968 24303 ft 407 kts 219°
2026-05-08 01:27 25.22605 -81.66983 23431 ft 396 kts 230°
2026-05-08 01:27 25.21011 -81.69407 22377 ft 386 kts 246°
2026-05-08 01:27 25.20142 -81.72172 21335 ft 380 kts 262°
2026-05-08 01:27 25.20076 -81.75056 20336 ft 376 kts 279°
2026-05-08 01:28 25.20825 -81.77792 19372 ft 373 kts 297°
2026-05-08 01:28 25.22326 -81.80107 18459 ft 372 kts 316°
2026-05-08 01:28 25.24424 -81.81736 17491 ft 370 kts 335°
2026-05-08 01:28 25.26863 -81.82460 16728 ft 365 kts 355°
2026-05-08 01:29 25.29358 -81.82224 15990 ft 360 kts 11°
2026-05-08 01:29 25.31717 -81.81363 15184 ft 358 kts 28°
2026-05-08 01:29 25.33655 -81.79661 14398 ft 356 kts 50°
2026-05-08 01:29 25.34892 -81.77329 13640 ft 353 kts 72°
2026-05-08 01:30 25.35258 -81.74688 12870 ft 346 kts 94°
2026-05-08 01:30 25.34751 -81.72120 12108 ft 341 kts 113°
2026-05-08 01:30 25.33553 -81.69894 11418 ft 334 kts 131°
2026-05-08 01:30 25.31862 -81.68255 11201 ft 313 kts 148°
2026-05-08 01:31 25.29950 -81.67267 10910 ft 298 kts 163°
2026-05-08 01:31 25.27918 -81.66929 10385 ft 295 kts 181°
2026-05-08 01:31 25.25909 -81.67267 10101 ft 294 kts 194°
2026-05-08 01:31 25.23937 -81.67803 10009 ft 296 kts 193°
2026-05-08 01:32 25.21932 -81.68324 9997 ft 296 kts 192°
2026-05-08 01:32 25.19945 -81.68835 9957 ft 289 kts 192°
2026-05-08 01:32 25.18020 -81.69331 9892 ft 279 kts 192°
2026-05-08 01:32 25.16164 -81.69809 9799 ft 268 kts 192°
2026-05-08 01:33 25.14382 -81.70271 9726 ft 257 kts 192°
2026-05-08 01:33 25.12678 -81.70713 9586 ft 248 kts 192°
2026-05-08 01:33 25.11013 -81.71146 9294 ft 246 kts 192°
2026-05-08 01:33 25.09349 -81.71577 8997 ft 245 kts 192°
2026-05-08 01:34 25.08251 -81.71862 8795 ft 245 kts 192°
2026-05-08 01:34 25.06061 -81.72431 8407 ft 243 kts 192°
2026-05-08 01:34 25.04416 -81.72858 8125 ft 242 kts 193°
2026-05-08 01:34 25.02911 -81.73249 8018 ft 241 kts 193°
2026-05-08 01:35 25.01905 -81.73511 7997 ft 243 kts 193°
2026-05-08 01:35 25.01345 -81.73658 7995 ft 243 kts 194°
2026-05-08 01:35 25.01106 -81.73727 7996 ft 242 kts 195°
2026-05-08 01:35 25.00918 -81.73788 7995 ft 242 kts 197°
2026-05-08 01:36 24.99708 -81.74319 7997 ft 243 kts 203°
2026-05-08 01:36 24.97651 -81.75291 7995 ft 243 kts 202°
2026-05-08 01:36 24.96093 -81.76001 7994 ft 242 kts 202°
2026-05-08 01:36 24.94549 -81.76703 7865 ft 240 kts 202°
2026-05-08 01:37 24.93500 -81.77180 7692 ft 240 kts 202°
2026-05-08 01:37 24.91964 -81.77881 7418 ft 239 kts 202°
2026-05-08 01:37 24.90449 -81.78574 7147 ft 238 kts 202°
2026-05-08 01:37 24.88924 -81.79273 6891 ft 237 kts 202°
2026-05-08 01:38 24.87465 -81.80091 6636 ft 235 kts 213°
2026-05-08 01:38 24.86467 -81.80815 6454 ft 234 kts 213°
2026-05-08 01:38 24.85108 -81.81787 6166 ft 233 kts 213°
2026-05-08 01:38 24.83758 -81.82744 5882 ft 233 kts 213°
2026-05-08 01:39 24.82396 -81.83707 5625 ft 232 kts 213°
2026-05-08 01:39 24.81034 -81.84669 5344 ft 232 kts 214°
2026-05-08 01:39 24.79670 -81.85632 5065 ft 232 kts 214°
2026-05-08 01:39 24.78318 -81.86589 4794 ft 232 kts 214°
2026-05-08 01:40 24.76960 -81.87551 4546 ft 230 kts 214°
2026-05-08 01:40 24.75615 -81.88504 4277 ft 230 kts 214°
2026-05-08 01:40 24.74271 -81.89457 4006 ft 230 kts 214°
2026-05-08 01:40 24.72931 -81.90404 3757 ft 228 kts 214°
2026-05-08 01:41 24.71595 -81.91350 3500 ft 227 kts 214°
2026-05-08 01:41 24.70265 -81.92290 3244 ft 228 kts 214°
2026-05-08 01:41 24.68947 -81.93223 3083 ft 221 kts 214°
2026-05-08 01:41 24.67694 -81.94109 2969 ft 207 kts 214°
2026-05-08 01:42 24.66521 -81.94937 2870 ft 193 kts 214°
2026-05-08 01:42 24.65423 -81.95712 2716 ft 185 kts 214°
2026-05-08 01:42 24.64337 -81.96476 2431 ft 185 kts 211°
2026-05-08 01:42 24.63130 -81.96903 2133 ft 186 kts 181°
2026-05-08 01:43 24.61844 -81.96868 1862 ft 184 kts 178°
2026-05-08 01:43 24.60580 -81.96841 1659 ft 177 kts 178°
2026-05-08 01:43 24.59359 -81.96828 1495 ft 180 kts 178°
2026-05-08 01:43 24.58077 -81.96816 1498 ft 183 kts 178°
2026-05-08 01:44 24.56795 -81.96777 1493 ft 182 kts 168°
2026-05-08 01:44 24.55744 -81.96128 1493 ft 177 kts 126°
2026-05-08 01:44 24.55374 -81.94861 1513 ft 176 kts 88°
2026-05-08 01:44 24.55398 -81.93551 1504 ft 173 kts 86°
2026-05-08 01:45 24.55431 -81.92229 1496 ft 173 kts 86°
2026-05-08 01:45 24.55458 -81.90912 1496 ft 173 kts 86°
2026-05-08 01:45 24.55479 -81.89579 1497 ft 176 kts 87°
2026-05-08 01:45 24.55496 -81.88248 1496 ft 175 kts 88°
2026-05-08 01:46 24.55511 -81.86915 1498 ft 175 kts 88°
2026-05-08 01:46 24.55523 -81.85602 1494 ft 162 kts 88°
2026-05-08 01:46 24.55513 -81.84418 1397 ft 154 kts 89°
2026-05-08 01:46 24.55488 -81.83248 1164 ft 150 kts 87°
2026-05-08 01:47 24.55536 -81.82097 983 ft 151 kts 84°
2026-05-08 01:47 24.55537 -81.80939 770 ft 152 kts 89°
2026-05-08 01:47 24.55568 -81.79804 602 ft 149 kts 86°
2026-05-08 01:48 24.55590 -81.77498 202 ft 149 kts 86°
2026-05-08 01:48 24.55610 -81.76378 15 ft 140 kts 87°
2026-05-08 01:48 24.55618 -81.75555 18 ft 65 kts 90°
2026-05-08 01:48 24.55619 -81.75306 15 ft 20 kts 87°
2026-05-08 01:49 24.55579 -81.75259 15 ft 14 kts 174°
2026-05-08 01:49 24.55519 -81.75291 18 ft 13 kts 234°
2026-05-08 01:49 24.55495 -81.75357 19 ft 1 kts 268°
2026-05-08 01:49 24.55498 -81.75388 19 ft 4 kts 260°
2026-05-08 01:50 24.55496 -81.75390 17 ft 0 kts 226°
2026-05-08 01:50 24.55491 -81.75397 17 ft 3 kts 235°
2026-05-08 01:50 24.55479 -81.75414 19 ft 1 kts 233°
2026-05-08 01:50 24.55476 -81.75418 18 ft 0 kts 227°
2026-05-08 01:51 24.55476 -81.75419 18 ft 0 kts 229°